Montpelier, VT

11:28 PM EDT on May 22, 2017 (GMT -0400)
Knapp State

Weather History for KMPV - October, 2014

Change the Weather History Date:

Tuesday, October 7, 2014

  Actual Average Record
Temperature  
Mean Temperature 58 °F 49 °F  
Max Temperature 67 °F 60 °F 83 °F (1963)
Min Temperature 49 °F 38 °F 22 °F (1964)
Degree Days  
Heating Degree Days 7 16  
Month to date heating degree days 78 106  
Since 1 July heating degree days 462 461  
Cooling Degree Days 0 0  
Month to date cooling degree days 0 0  
Year to date cooling degree days 186 263  
Growing Degree Days 8 (Base 50)    
Moisture  
Dew Point 51 °F    
Average Humidity 74    
Maximum Humidity 100    
Minimum Humidity 48    
Precipitation  
Precipitation 0.25 in 0.12 in 2.28 in (1972)
Month to date precipitation 1.13 0.82  
Year to date precipitation 27.77 28.74  
Sea Level Pressure  
Sea Level Pressure 30.00 in    
Wind  
Wind Speed 12 mph (South)    
Max Wind Speed 24 mph    
Max Gust Speed 31 mph    
Visibility 9 miles    
Events Rain    
T = Trace of Precipitation, MM = Missing Value Source: NWS Daily Summary

Daily Weather History Graph

Daily Weather History Graph

Search for Another Location

Airport or City:

Trip Planner

Search our weather history database for the weather conditions in past years. The results will help you decide how hot, cold, wet, or windy it might be!

Date:

Astronomy

Oct. 07, 2014 Rise Set
Actual Time 6:55 AM EDT 6:20 PM EDT
Civil Twilight 6:26 AM EDT 6:49 PM EDT
Nautical Twilight 5:52 AM EDT 7:22 PM EDT
Astronomical Twilight 5:18 AM EDT 7:56 PM EDT
Moon 5:54 PM EDT (10/7) 5:46 AM EDT (10/7)
Length of Visible Light 12h 22m
Length of Day
11h 25m
Waxing Gibbous, 99% of the Moon is Illuminated
Oct 7
Waxing Gibbous
Oct 8
Full
Oct 15
Last Quarter
Oct 23
New
Oct 30
First Quarter

Hourly Weather History & Observations

Time (EDT) Temp. Dew Point Humidity Pressure Visibility Wind Dir Wind Speed Gust Speed Precip Events Conditions
12:51 AM 53.1 °F 46.9 °F 80% 30.08 in 10.0 mi South 13.8 mph - N/A   Clear
1:51 AM 53.1 °F 46.9 °F 80% 30.08 in 10.0 mi South 17.3 mph - N/A   Clear
2:51 AM 52.0 °F 46.9 °F 83% 30.06 in 10.0 mi South 13.8 mph - N/A   Clear
3:51 AM 54.0 °F 48.0 °F 80% 30.04 in 10.0 mi SSE 19.6 mph 25.3 mph N/A   Clear
4:51 AM 54.0 °F 48.9 °F 83% 30.03 in 10.0 mi South 17.3 mph 25.3 mph N/A   Mostly Cloudy
5:51 AM 54.0 °F 48.9 °F 83% 30.02 in 10.0 mi South 20.7 mph 27.6 mph 0.00 in Rain Light Rain
6:51 AM 55.0 °F 50.0 °F 83% 30.01 in 10.0 mi SSE 17.3 mph 28.8 mph 0.00 in   Mostly Cloudy
7:51 AM 55.0 °F 52.0 °F 89% 30.01 in 7.0 mi South 18.4 mph 26.5 mph 0.01 in Rain Light Rain
8:51 AM 55.9 °F 54.0 °F 93% 30.00 in 3.0 mi South 15.0 mph 24.2 mph 0.10 in Rain Light Rain
9:33 AM 55.9 °F 54.0 °F 93% 29.99 in 2.5 mi South 11.5 mph - 0.07 in Rain Rain
9:40 AM 55.9 °F 54.0 °F 93% 30.00 in 6.0 mi South 18.4 mph 23.0 mph 0.07 in Rain Light Rain
9:51 AM 55.9 °F 54.0 °F 93% 30.01 in 2.5 mi South 15.0 mph - 0.09 in Rain Rain
10:03 AM 57.0 °F 54.0 °F 89% 30.00 in 3.0 mi South 15.0 mph 23.0 mph 0.03 in Rain Rain
10:10 AM 57.0 °F 55.9 °F 96% 30.00 in 8.0 mi South 12.7 mph - 0.03 in Rain Light Rain
10:39 AM 57.9 °F 57.0 °F 97% 30.00 in 10.0 mi South 13.8 mph 21.9 mph 0.03 in   Overcast
10:51 AM 57.9 °F 57.9 °F 100% 30.01 in 10.0 mi South 15.0 mph - 0.03 in Rain Light Rain
11:51 AM 62.1 °F 61.0 °F 96% 30.01 in 10.0 mi South 9.2 mph - 0.00 in   Mostly Cloudy
12:51 PM 63.0 °F 53.1 °F 70% 30.00 in 10.0 mi South 9.2 mph - N/A   Clear
1:51 PM 64.9 °F 50.0 °F 58% 29.99 in 10.0 mi SW 13.8 mph 19.6 mph N/A   Scattered Clouds
2:51 PM 64.9 °F 48.0 °F 54% 29.98 in 10.0 mi SW 10.4 mph 18.4 mph N/A   Mostly Cloudy
3:51 PM 66.0 °F 48.0 °F 52% 29.97 in 10.0 mi South 11.5 mph - N/A   Mostly Cloudy
4:51 PM 64.9 °F 45.0 °F 48% 29.97 in 10.0 mi SSW 11.5 mph - N/A   Mostly Cloudy
5:51 PM 62.1 °F 45.0 °F 53% 29.97 in 10.0 mi SSW 6.9 mph - N/A   Clear
6:51 PM 55.9 °F 46.0 °F 69% 29.99 in 10.0 mi South 4.6 mph - N/A   Clear
7:51 PM 51.1 °F 45.0 °F 80% 29.99 in 10.0 mi South 4.6 mph - N/A   Clear
8:51 PM 50.0 °F 45.0 °F 83% 29.99 in 10.0 mi SSW 3.5 mph - N/A   Clear
9:51 PM 55.9 °F 48.0 °F 75% 29.98 in 10.0 mi South 12.7 mph - N/A   Clear
10:51 PM 55.9 °F 50.0 °F 80% 29.97 in 10.0 mi SSW 5.8 mph - N/A   Scattered Clouds
11:51 PM 55.9 °F 51.1 °F 84% 29.95 in 10.0 mi Calm Calm - N/A   Overcast